Location: Unspecified
(0.0000°N, 0.0000°E)
Time: 10:44:52
(UTC+00:00)

deb DAPP - Pass Details

Date: 14 December 2025
Orbit: 606 x 945 km, 99.0° (Epoch: 17 January)

Event Time Altitude Azimuth Distance (km) Brightness Sun altitude
Rises 19:06:42 0° 168° (SSE) 3,161 ? -16.4°
Reaches altitude 10° 19:08:54 10° 167° (SSE) 2,285 ? -16.9°
Maximum altitude 19:13:58 89° 251° (WSW) 814 ? -18.1°
Drops below altitude 10° 19:19:31 10° 347° (NNW) 2,496 ? -19.4°
Sets 19:21:59 0° 347° (NNW) 3,474 ? -19.9°
